Location: Croque
(51.0586°N, 55.8291°W)
Time: 10:33:38
(UTC+00:00)

ISS - Visible Passes

Search period start: 17 May 2022 00:00
Search period end: 27 May 2022 00:00
Orbit: 415 x 422 km, 51.6° (Epoch: 17 May)

Date Brightness Start Highest point End Pass type
(mag) Time Alt. Az. Time Alt. Az. Time Alt. Az.
17 May -3.9 01:11:12 10° WSW 01:14:32 66° SSE 01:17:52 10° E visible
17 May -3.7 02:47:58 10° W 02:51:20 78° N 02:53:27 21° E visible
17 May -2.2 04:24:47 10° W 04:26:21 25° W 04:26:21 25° W visible
18 May -3.6 00:23:25 10° SW 00:26:41 50° SSE 00:29:57 10° E visible
18 May -3.7 02:00:03 10° W 02:03:24 80° N 02:06:47 10° E visible
18 May -3.6 03:36:53 10° W 03:39:46 60° WSW 03:39:46 60° WSW visible
19 May -3.8 01:12:07 10° W 01:15:29 87° N 01:18:51 10° E visible
19 May -3.9 02:48:58 10° W 02:52:20 89° S 02:53:16 45° ESE visible
19 May -1.2 04:25:52 10° W 04:26:10 12° W 04:26:10 12° W visible
20 May -3.8 00:24:12 10° WSW 00:27:33 81° SSE 00:30:56 10° E visible
20 May -3.8 02:01:01 10° W 02:04:23 82° N 02:06:47 18° E visible
20 May -2.4 03:37:51 10° W 03:39:41 27° W 03:39:41 27° W visible
21 May -3.7 01:13:03 10° W 01:16:26 78° N 01:19:48 10° E visible
21 May -3.8 02:49:53 10° W 02:53:12 60° SSW 02:53:14 60° SSW visible
22 May -3.6 00:25:04 10° W 00:28:26 80° N 00:31:49 10° E visible
22 May -3.9 02:01:54 10° W 02:05:16 76° SSW 02:06:46 30° ESE visible
22 May -1.4 03:38:58 10° W 03:39:40 14° W 03:39:40 14° W visible
23 May -3.8 01:13:55 10° W 01:17:18 90° E 01:20:19 12° E visible
23 May -2.6 02:50:48 10° W 02:53:13 30° SW 02:53:13 30° SW visible
24 May -3.7 00:25:54 10° W 00:29:17 81° N 00:32:39 10° E visible
24 May -3.4 02:02:44 10° W 02:05:58 45° SSW 02:06:47 37° SSE visible
25 May -3.7 01:14:41 10° W 01:18:01 61° SSW 01:20:21 18° ESE visible
25 May -1.6 02:52:04 10° W 02:53:15 15° WSW 02:53:15 15° WSW visible
26 May -3.8 00:26:39 10° W 00:30:01 78° SSW 00:33:22 10° ESE visible
26 May -2.4 02:03:41 10° W 02:06:28 24° SW 02:06:49 23° SSW visible
